BRS2901 SCEL-SLVR

Flight info

Callsign BRS2901
Flight time 2h 37m
Altitude 37000
Route GUVOL6B GUVOL UN527 JUA UW3 LAR UZ108 TUC/N0465F360 UW5 SAL/N0461F370 UL322 VIR
Aircraft A339/H-SADE1E2E3GHIJ3J5M1P2RWXY/LB2D1

Departure

Time 2026-04-20 21:28
Airport Comodoro Arturo Merino Benítez International Airport (SCEL)

Arrival

Time 2026-04-21 00:06
Airport Viru Viru International Airport (SLVR)
Time Latitude Longitude Altitude Speed Heading
2026-04-20 20:59 -33.40635 -70.78923 1573 ft 0 kts 268°
2026-04-20 21:11 -33.40633 -70.78908 1572 ft 2 kts 249°
2026-04-20 21:11 -33.40628 -70.78892 1572 ft 2 kts 251°
2026-04-20 21:11 -33.40623 -70.78875 1572 ft 2 kts 253°
2026-04-20 21:12 -33.40619 -70.78857 1572 ft 2 kts 252°
2026-04-20 21:12 -33.40618 -70.78841 1572 ft 2 kts 302°
2026-04-20 21:12 -33.40629 -70.78829 1572 ft 2 kts 347°
2026-04-20 21:12 -33.40636 -70.78828 1572 ft 1 kts 358°
2026-04-20 21:13 -33.40638 -70.78828 1572 ft 0 kts 358°
2026-04-20 21:16 -33.40630 -70.78828 1572 ft 2 kts 358°
2026-04-20 21:16 -33.40609 -70.78829 1572 ft 4 kts 358°
2026-04-20 21:16 -33.40579 -70.78831 1572 ft 4 kts 358°
2026-04-20 21:17 -33.40545 -70.78832 1572 ft 5 kts 357°
2026-04-20 21:17 -33.40507 -70.78835 1572 ft 5 kts 357°
2026-04-20 21:17 -33.40467 -70.78837 1572 ft 6 kts 357°
2026-04-20 21:17 -33.40421 -70.78839 1572 ft 7 kts 357°
2026-04-20 21:18 -33.40365 -70.78842 1572 ft 8 kts 357°
2026-04-20 21:18 -33.40300 -70.78846 1572 ft 9 kts 358°
2026-04-20 21:18 -33.40229 -70.78850 1572 ft 10 kts 358°
2026-04-20 21:18 -33.40154 -70.78854 1572 ft 11 kts 358°
2026-04-20 21:19 -33.40074 -70.78858 1572 ft 11 kts 357°
2026-04-20 21:19 -33.39991 -70.78863 1572 ft 12 kts 357°
2026-04-20 21:19 -33.39907 -70.78867 1572 ft 12 kts 359°
2026-04-20 21:20 -33.39734 -70.78876 1572 ft 12 kts 357°
2026-04-20 21:20 -33.39646 -70.78881 1572 ft 12 kts 357°
2026-04-20 21:20 -33.39558 -70.78886 1573 ft 12 kts 358°
2026-04-20 21:20 -33.39469 -70.78872 1572 ft 12 kts 22°
2026-04-20 21:21 -33.39389 -70.78823 1572 ft 12 kts 29°
2026-04-20 21:21 -33.39306 -70.78795 1572 ft 12 kts
2026-04-20 21:21 -33.39216 -70.78799 1572 ft 12 kts 358°
2026-04-20 21:21 -33.39128 -70.78804 1572 ft 12 kts 357°
2026-04-20 21:22 -33.39037 -70.78809 1572 ft 13 kts 358°
2026-04-20 21:22 -33.38946 -70.78813 1572 ft 13 kts 358°
2026-04-20 21:22 -33.38855 -70.78818 1572 ft 13 kts 358°
2026-04-20 21:22 -33.38763 -70.78823 1573 ft 13 kts 358°
2026-04-20 21:23 -33.38672 -70.78828 1573 ft 13 kts 356°
2026-04-20 21:23 -33.38579 -70.78833 1573 ft 13 kts 359°
2026-04-20 21:23 -33.38487 -70.78835 1572 ft 13 kts 358°
2026-04-20 21:23 -33.38392 -70.78844 1573 ft 14 kts 356°
2026-04-20 21:24 -33.38289 -70.78849 1573 ft 15 kts 358°
2026-04-20 21:24 -33.38178 -70.78853 1573 ft 16 kts 359°
2026-04-20 21:24 -33.38063 -70.78861 1573 ft 16 kts 356°
2026-04-20 21:24 -33.37943 -70.78869 1573 ft 17 kts 358°
2026-04-20 21:25 -33.37819 -70.78873 1573 ft 15 kts 358°
2026-04-20 21:25 -33.37724 -70.78879 1573 ft 14 kts 358°
2026-04-20 21:25 -33.37644 -70.78871 1573 ft 8 kts 43°
2026-04-20 21:25 -33.37626 -70.78818 1573 ft 4 kts 82°
2026-04-20 21:26 -33.37625 -70.78817 1573 ft 0 kts 84°
2026-04-20 21:26 -33.37625 -70.78810 1573 ft 2 kts 85°
2026-04-20 21:26 -33.37623 -70.78783 1573 ft 4 kts 85°
2026-04-20 21:26 -33.37619 -70.78737 1573 ft 6 kts 85°
2026-04-20 21:27 -33.37623 -70.78686 1573 ft 5 kts 127°
2026-04-20 21:27 -33.37653 -70.78671 1573 ft 4 kts 176°
2026-04-20 21:27 -33.37663 -70.78670 1573 ft 0 kts 175°
2026-04-20 21:27 -33.37751 -70.78664 1573 ft 40 kts 177°
2026-04-20 21:28 -33.38253 -70.78639 1573 ft 101 kts 177°
2026-04-20 21:28 -33.39131 -70.78590 1573 ft 151 kts 177°
2026-04-20 21:28 -33.40328 -70.78535 1699 ft 181 kts 176°
2026-04-20 21:28 -33.41577 -70.78477 2284 ft 180 kts 175°
2026-04-20 21:29 -33.42783 -70.78400 3016 ft 174 kts 175°
2026-04-20 21:29 -33.44000 -70.78330 3540 ft 179 kts 175°
2026-04-20 21:29 -33.45285 -70.78246 3820 ft 194 kts 178°
2026-04-20 21:29 -33.46618 -70.78709 4099 ft 212 kts 218°
2026-04-20 21:30 -33.47426 -70.80250 4366 ft 232 kts 259°
2026-04-20 21:30 -33.47454 -70.82237 4709 ft 249 kts 271°
2026-04-20 21:30 -33.47364 -70.84384 5061 ft 266 kts 270°
2026-04-20 21:30 -33.47319 -70.86632 5523 ft 278 kts 270°
2026-04-20 21:31 -33.47292 -70.88955 6249 ft 280 kts 270°
2026-04-20 21:31 -33.47272 -70.91258 6974 ft 282 kts 270°
2026-04-20 21:31 -33.47237 -70.93607 7646 ft 284 kts 275°
2026-04-20 21:31 -33.46634 -70.95842 8263 ft 289 kts 303°
2026-04-20 21:32 -33.45195 -70.97527 8934 ft 292 kts 330°
2026-04-20 21:32 -33.43301 -70.98259 9555 ft 294 kts 357°
2026-04-20 21:32 -33.41235 -70.98121 10201 ft 296 kts
2026-04-20 21:32 -33.39166 -70.97881 10589 ft 308 kts
2026-04-20 21:33 -33.37046 -70.97648 10860 ft 321 kts
2026-04-20 21:33 -33.36573 -70.97599 10933 ft 324 kts
2026-04-20 21:33 -33.35201 -70.97457 11211 ft 329 kts
2026-04-20 21:33 -33.32825 -70.97222 11923 ft 328 kts
2026-04-20 21:34 -33.30555 -70.97008 12610 ft 327 kts
2026-04-20 21:34 -33.28294 -70.96795 13278 ft 327 kts
2026-04-20 21:34 -33.26010 -70.96584 13958 ft 328 kts
2026-04-20 21:34 -33.23740 -70.96373 14608 ft 328 kts
2026-04-20 21:35 -33.21505 -70.95820 15257 ft 336 kts 13°
2026-04-20 21:35 -33.19373 -70.94641 15901 ft 345 kts 26°
2026-04-20 21:35 -33.17383 -70.93019 16519 ft 349 kts 29°
2026-04-20 21:35 -33.15398 -70.91303 17093 ft 354 kts 30°
2026-04-20 21:36 -33.13393 -70.89558 17699 ft 358 kts 29°
2026-04-20 21:36 -33.11397 -70.87832 18314 ft 361 kts 29°
2026-04-20 21:36 -33.09340 -70.86065 18921 ft 364 kts 28°
2026-04-20 21:36 -33.07282 -70.84307 19493 ft 368 kts 28°
2026-04-20 21:37 -33.05208 -70.82539 20049 ft 372 kts 28°
2026-04-20 21:37 -33.03083 -70.80696 20603 ft 377 kts 29°
2026-04-20 21:37 -33.00988 -70.78833 21119 ft 381 kts 29°
2026-04-20 21:37 -32.98846 -70.76921 21620 ft 385 kts 29°
2026-04-20 21:38 -32.96708 -70.75017 22099 ft 390 kts 29°
2026-04-20 21:38 -32.94532 -70.73086 22588 ft 393 kts 29°
2026-04-20 21:38 -32.92286 -70.71219 23097 ft 388 kts 21°
2026-04-20 21:38 -32.89839 -70.69985 23563 ft 378 kts
2026-04-20 21:39 -32.87288 -70.69460 24013 ft 370 kts 356°
2026-04-20 21:39 -32.84727 -70.69286 24452 ft 372 kts 354°
2026-04-20 21:39 -32.82119 -70.69145 24895 ft 376 kts 354°
2026-04-20 21:39 -32.79502 -70.68996 25341 ft 379 kts 354°
2026-04-20 21:40 -32.76862 -70.68835 25784 ft 382 kts 354°
2026-04-20 21:40 -32.74194 -70.68662 26221 ft 385 kts 354°
2026-04-20 21:40 -32.71498 -70.68484 26644 ft 387 kts 354°
2026-04-20 21:40 -32.68809 -70.68304 27052 ft 390 kts 354°
2026-04-20 21:41 -32.66091 -70.68124 27458 ft 393 kts 354°
2026-04-20 21:41 -32.63350 -70.67696 27818 ft 411 kts
2026-04-20 21:41 -32.60690 -70.66198 28159 ft 437 kts 27°
2026-04-20 21:41 -32.58483 -70.63617 28509 ft 460 kts 48°
2026-04-20 21:42 -32.56775 -70.60363 28889 ft 467 kts 53°
2026-04-20 21:42 -32.55130 -70.57021 29238 ft 471 kts 53°
2026-04-20 21:42 -32.53482 -70.53684 29537 ft 476 kts 53°
2026-04-20 21:42 -32.51791 -70.50315 29842 ft 480 kts 53°
2026-04-20 21:43 -32.50053 -70.46893 30144 ft 484 kts 52°
2026-04-20 21:43 -32.48316 -70.43500 30383 ft 489 kts 52°
2026-04-20 21:43 -32.46537 -70.40031 30588 ft 495 kts 52°
2026-04-20 21:43 -32.44737 -70.36532 30820 ft 499 kts 52°
2026-04-20 21:44 -32.42932 -70.33031 31074 ft 502 kts 51°
2026-04-20 21:44 -32.41125 -70.29533 31322 ft 504 kts 51°
2026-04-20 21:44 -32.39283 -70.25976 31600 ft 505 kts 51°
2026-04-20 21:44 -32.37480 -70.22417 31925 ft 508 kts 53°
2026-04-20 21:45 -32.35786 -70.18707 32290 ft 509 kts 55°
2026-04-20 21:45 -32.34169 -70.15037 32650 ft 508 kts 55°
2026-04-20 21:45 -32.32555 -70.11347 33000 ft 508 kts 55°
2026-04-20 21:45 -32.30921 -70.07616 33296 ft 510 kts 55°
2026-04-20 21:46 -32.29289 -70.03900 33614 ft 510 kts 55°
2026-04-20 21:46 -32.27665 -70.00211 33950 ft 510 kts 55°
2026-04-20 21:46 -32.26035 -69.96516 34272 ft 510 kts 55°
2026-04-20 21:46 -32.24395 -69.92802 34598 ft 509 kts 55°
2026-04-20 21:47 -32.22767 -69.89123 34924 ft 509 kts 54°
2026-04-20 21:47 -32.21133 -69.85434 35249 ft 508 kts 54°
2026-04-20 21:47 -32.19500 -69.81751 35559 ft 507 kts 54°
2026-04-20 21:47 -32.17851 -69.78037 35845 ft 507 kts 54°
2026-04-20 21:48 -32.16229 -69.74388 36084 ft 508 kts 54°
2026-04-20 21:48 -32.14588 -69.70705 36291 ft 510 kts 54°
2026-04-20 21:48 -32.12943 -69.67016 36510 ft 511 kts 54°
2026-04-20 21:48 -32.11293 -69.63317 36731 ft 512 kts 54°
2026-04-20 21:49 -32.09616 -69.59559 36945 ft 514 kts 54°
2026-04-20 21:49 -32.07976 -69.55888 37139 ft 515 kts 54°
2026-04-20 21:49 -32.06306 -69.52155 37314 ft 516 kts 54°
2026-04-20 21:50 -32.02956 -69.44672 37385 ft 518 kts 54°
2026-04-20 21:50 -31.99603 -69.37195 37400 ft 517 kts 54°
2026-04-20 21:51 -31.96230 -69.29687 37423 ft 517 kts 54°
2026-04-20 21:51 -31.92888 -69.22266 37471 ft 516 kts 54°
2026-04-20 21:52 -31.89522 -69.14809 37464 ft 515 kts 54°
2026-04-20 21:52 -31.86157 -69.07369 37419 ft 514 kts 54°
2026-04-20 21:52 -31.84492 -69.03689 37287 ft 513 kts 54°
2026-04-20 21:53 -31.82820 -68.99998 37081 ft 512 kts 54°
2026-04-20 21:53 -31.81152 -68.96320 36814 ft 512 kts 54°
2026-04-20 21:53 -31.79481 -68.92644 36518 ft 510 kts 54°
2026-04-20 21:53 -31.77820 -68.88990 36318 ft 509 kts 54°
2026-04-20 21:54 -31.76161 -68.85349 36186 ft 509 kts 54°
2026-04-20 21:54 -31.72814 -68.78008 36457 ft 508 kts 54°
2026-04-20 21:54 -31.71169 -68.74400 36730 ft 505 kts 54°
2026-04-20 21:55 -31.69517 -68.70782 36933 ft 505 kts 54°
2026-04-20 21:55 -31.67848 -68.67134 37044 ft 507 kts 54°
2026-04-20 21:55 -31.66174 -68.63481 37141 ft 510 kts 54°
2026-04-20 21:56 -31.62821 -68.56162 37207 ft 510 kts 54°
2026-04-20 21:56 -31.59374 -68.48987 37174 ft 502 kts 48°
2026-04-20 21:57 -31.55130 -68.42644 37141 ft 491 kts 37°
2026-04-20 21:57 -31.50103 -68.37394 37136 ft 481 kts 26°
2026-04-20 21:58 -31.44567 -68.33074 37133 ft 481 kts 22°
2026-04-20 21:58 -31.38918 -68.28826 37139 ft 482 kts 22°
2026-04-20 21:59 -31.33293 -68.24573 37140 ft 482 kts 22°
2026-04-20 21:59 -31.27646 -68.20292 37145 ft 482 kts 22°
2026-04-20 22:00 -31.22036 -68.16039 37160 ft 482 kts 23°
2026-04-20 22:00 -31.16421 -68.11786 37148 ft 482 kts 23°
2026-04-20 22:01 -31.10813 -68.07545 37143 ft 482 kts 23°
2026-04-20 22:01 -31.05193 -68.03300 37159 ft 481 kts 23°
2026-04-20 22:02 -30.99556 -67.99049 37146 ft 482 kts 23°
2026-04-20 22:02 -30.93956 -67.94834 37136 ft 481 kts 23°
2026-04-20 22:03 -30.88304 -67.90585 37139 ft 481 kts 23°
2026-04-20 22:03 -30.82677 -67.86359 37149 ft 480 kts 23°
2026-04-20 22:04 -30.77077 -67.82159 37160 ft 481 kts 23°
2026-04-20 22:04 -30.71473 -67.77961 37065 ft 481 kts 24°
2026-04-20 22:05 -30.65828 -67.73736 36830 ft 481 kts 24°
2026-04-20 22:05 -30.60225 -67.69546 36674 ft 480 kts 24°
2026-04-20 22:06 -30.54611 -67.65356 36831 ft 481 kts 24°
2026-04-20 22:06 -30.51789 -67.63254 36953 ft 481 kts 24°
2026-04-20 22:06 -30.48997 -67.61180 37086 ft 481 kts 24°
2026-04-20 22:07 -30.43357 -67.56999 37156 ft 481 kts 24°
2026-04-20 22:07 -30.37739 -67.52834 37128 ft 481 kts 24°
2026-04-20 22:08 -30.32117 -67.48669 37101 ft 480 kts 24°
2026-04-20 22:08 -30.26465 -67.44486 37083 ft 480 kts 24°
2026-04-20 22:09 -30.20829 -67.40321 37080 ft 480 kts 24°
2026-04-20 22:09 -30.15226 -67.36186 37094 ft 480 kts 24°
2026-04-20 22:10 -30.09578 -67.32021 37099 ft 480 kts 23°
2026-04-20 22:10 -30.03951 -67.27879 37100 ft 480 kts 23°
2026-04-20 22:11 -29.98330 -67.23747 37102 ft 480 kts 23°
2026-04-20 22:11 -29.92705 -67.19620 37099 ft 480 kts 23°
2026-04-20 22:12 -29.87050 -67.15476 37104 ft 480 kts 23°
2026-04-20 22:12 -29.81402 -67.11342 37110 ft 480 kts 23°
2026-04-20 22:13 -29.75766 -67.07223 37112 ft 481 kts 24°
2026-04-20 22:13 -29.70130 -67.03104 37123 ft 482 kts 24°
2026-04-20 22:14 -29.64482 -66.98982 37096 ft 482 kts 24°
2026-04-20 22:14 -29.58812 -66.94851 37037 ft 481 kts 24°
2026-04-20 22:15 -29.53171 -66.90746 37028 ft 482 kts 24°
2026-04-20 22:15 -29.47487 -66.86614 37078 ft 482 kts 24°
2026-04-20 22:16 -29.41857 -66.82530 37112 ft 482 kts 24°
2026-04-20 22:16 -29.36261 -66.78198 37105 ft 487 kts 27°
2026-04-20 22:17 -29.30798 -66.73616 37091 ft 487 kts 28°
2026-04-20 22:17 -29.25336 -66.69025 37078 ft 487 kts 28°
2026-04-20 22:18 -29.19911 -66.64471 37076 ft 487 kts 28°
2026-04-20 22:18 -29.14430 -66.59881 37089 ft 488 kts 28°
2026-04-20 22:19 -29.08937 -66.55287 37100 ft 488 kts 28°
2026-04-20 22:19 -29.03483 -66.50733 37107 ft 488 kts 28°
2026-04-20 22:20 -28.97995 -66.46159 37111 ft 488 kts 28°
2026-04-20 22:20 -28.92511 -66.41594 37108 ft 488 kts 28°
2026-04-20 22:21 -28.86991 -66.37005 37110 ft 489 kts 28°
2026-04-20 22:21 -28.81484 -66.32433 37117 ft 489 kts 27°
2026-04-20 22:22 -28.75961 -66.27855 37100 ft 489 kts 27°
2026-04-20 22:22 -28.70466 -66.23306 36970 ft 489 kts 27°
2026-04-20 22:23 -28.64949 -66.18744 36911 ft 489 kts 27°
2026-04-20 22:23 -28.59532 -66.14270 36720 ft 490 kts 27°
2026-04-20 22:23 -28.56776 -66.11997 36494 ft 490 kts 27°
2026-04-20 22:24 -28.54019 -66.09724 36133 ft 490 kts 27°
2026-04-20 22:24 -28.51283 -66.07469 35736 ft 488 kts 27°
2026-04-20 22:24 -28.48525 -66.05198 35413 ft 487 kts 27°
2026-04-20 22:25 -28.43011 -66.00668 35271 ft 492 kts 28°
2026-04-20 22:25 -28.37462 -65.96111 35321 ft 494 kts 28°
2026-04-20 22:26 -28.31876 -65.91528 35470 ft 495 kts 28°
2026-04-20 22:26 -28.26313 -65.86968 35690 ft 496 kts 28°
2026-04-20 22:27 -28.20731 -65.82396 36255 ft 493 kts 28°
2026-04-20 22:27 -28.17949 -65.80120 36516 ft 493 kts 28°
2026-04-20 22:27 -28.15200 -65.77875 36749 ft 494 kts 28°
2026-04-20 22:27 -28.12397 -65.75588 36913 ft 496 kts 28°
2026-04-20 22:28 -28.06822 -65.71040 37050 ft 495 kts 28°
2026-04-20 22:28 -28.01240 -65.66491 37022 ft 494 kts 27°
2026-04-20 22:29 -27.95673 -65.61962 37084 ft 493 kts 27°
2026-04-20 22:29 -27.90106 -65.57438 37085 ft 492 kts 27°
2026-04-20 22:30 -27.84525 -65.52909 37062 ft 493 kts 28°
2026-04-20 22:30 -27.78953 -65.48397 37040 ft 493 kts 27°
2026-04-20 22:31 -27.73202 -65.44338 37028 ft 484 kts 20°
2026-04-20 22:31 -27.67157 -65.41080 37020 ft 476 kts 14°
2026-04-20 22:32 -27.60953 -65.38607 37011 ft 472 kts
2026-04-20 22:32 -27.54693 -65.36330 37006 ft 472 kts
2026-04-20 22:33 -27.48468 -65.34058 36998 ft 472 kts
2026-04-20 22:33 -27.42226 -65.31779 36998 ft 472 kts
2026-04-20 22:34 -27.35945 -65.29486 36999 ft 473 kts
2026-04-20 22:34 -27.29694 -65.27207 37002 ft 473 kts
2026-04-20 22:35 -27.23430 -65.24925 37003 ft 473 kts
2026-04-20 22:35 -27.17176 -65.22649 37004 ft 473 kts
2026-04-20 22:36 -27.10915 -65.20373 37006 ft 474 kts
2026-04-20 22:36 -27.04654 -65.18098 37007 ft 474 kts
2026-04-20 22:37 -26.98363 -65.15813 37005 ft 474 kts
2026-04-20 22:37 -26.92050 -65.13625 37005 ft 470 kts
2026-04-20 22:38 -26.85664 -65.12357 37011 ft 461 kts 357°
2026-04-20 22:38 -26.79304 -65.12177 37017 ft 453 kts 348°
2026-04-20 22:39 -26.73112 -65.13000 37023 ft 446 kts 342°
2026-04-20 22:39 -26.66964 -65.14178 37030 ft 446 kts 342°
2026-04-20 22:40 -26.60867 -65.15349 37035 ft 446 kts 342°
2026-04-20 22:40 -26.54768 -65.16516 37041 ft 446 kts 342°
2026-04-20 22:41 -26.48625 -65.17689 37046 ft 446 kts 342°
2026-04-20 22:41 -26.42537 -65.18848 37050 ft 446 kts 342°
2026-04-20 22:42 -26.36413 -65.20011 37053 ft 446 kts 342°
2026-04-20 22:42 -26.30293 -65.21172 37055 ft 446 kts 342°
2026-04-20 22:43 -26.24139 -65.22337 37056 ft 446 kts 342°
2026-04-20 22:43 -26.18028 -65.23497 37056 ft 446 kts 342°
2026-04-20 22:44 -26.11892 -65.24661 37059 ft 446 kts 342°
2026-04-20 22:44 -26.05791 -65.25814 37064 ft 446 kts 342°
2026-04-20 22:45 -25.99653 -65.26973 37074 ft 446 kts 342°
2026-04-20 22:45 -25.93521 -65.28128 37038 ft 446 kts 342°
2026-04-20 22:46 -25.87413 -65.29278 36955 ft 447 kts 342°
2026-04-20 22:46 -25.81223 -65.30441 36819 ft 447 kts 342°
2026-04-20 22:47 -25.75093 -65.31593 36638 ft 447 kts 342°
2026-04-20 22:47 -25.68989 -65.32745 36634 ft 447 kts 342°
2026-04-20 22:48 -25.65902 -65.33327 36753 ft 449 kts 342°
2026-04-20 22:48 -25.62804 -65.33910 36888 ft 450 kts 342°
2026-04-20 22:48 -25.59716 -65.34489 37033 ft 450 kts 342°
2026-04-20 22:48 -25.56655 -65.35061 37097 ft 449 kts 342°
2026-04-20 22:49 -25.50494 -65.36212 37120 ft 448 kts 342°
2026-04-20 22:49 -25.44323 -65.37367 37087 ft 448 kts 342°
2026-04-20 22:50 -25.38185 -65.38515 37069 ft 448 kts 342°
2026-04-20 22:50 -25.32056 -65.39660 37034 ft 448 kts 342°
2026-04-20 22:51 -25.25904 -65.40807 37022 ft 449 kts 342°
2026-04-20 22:51 -25.19717 -65.41960 37025 ft 449 kts 342°
2026-04-20 22:52 -25.13551 -65.43107 37022 ft 449 kts 342°
2026-04-20 22:52 -25.07403 -65.44247 37019 ft 449 kts 342°
2026-04-20 22:53 -25.01241 -65.45390 37013 ft 449 kts 342°
2026-04-20 22:53 -24.95063 -65.46529 37007 ft 450 kts 343°
2026-04-20 22:54 -24.88735 -65.47099 37011 ft 458 kts 351°
2026-04-20 22:54 -24.82320 -65.46685 37019 ft 466 kts 359°
2026-04-20 22:55 -24.75880 -65.45233 37027 ft 477 kts
2026-04-20 22:55 -24.69501 -65.43098 37050 ft 478 kts
2026-04-20 22:56 -24.63170 -65.40938 37092 ft 478 kts
2026-04-20 22:56 -24.56796 -65.38776 37135 ft 478 kts
2026-04-20 22:57 -24.50435 -65.36626 37161 ft 478 kts
2026-04-20 22:57 -24.44079 -65.34483 37156 ft 478 kts
2026-04-20 22:58 -24.37682 -65.32330 37127 ft 478 kts
2026-04-20 22:58 -24.31336 -65.30196 37084 ft 478 kts
2026-04-20 22:59 -24.24957 -65.28052 37048 ft 478 kts
2026-04-20 22:59 -24.18593 -65.25917 37027 ft 478 kts
2026-04-20 23:00 -24.12231 -65.23785 37028 ft 478 kts
2026-04-20 23:00 -24.05864 -65.21652 37048 ft 479 kts
2026-04-20 23:01 -23.99486 -65.19519 37062 ft 479 kts
2026-04-20 23:01 -23.93143 -65.17400 37087 ft 479 kts
2026-04-20 23:02 -23.86725 -65.15257 37124 ft 479 kts
2026-04-20 23:02 -23.80329 -65.13124 37164 ft 479 kts
2026-04-20 23:03 -23.73956 -65.11000 37188 ft 479 kts
2026-04-20 23:03 -23.67557 -65.08870 37219 ft 479 kts
2026-04-20 23:04 -23.61187 -65.06751 37190 ft 479 kts
2026-04-20 23:04 -23.54810 -65.04633 37026 ft 479 kts
2026-04-20 23:05 -23.51617 -65.03573 36918 ft 479 kts
2026-04-20 23:05 -23.48422 -65.02513 36790 ft 478 kts
2026-04-20 23:05 -23.45261 -65.01466 36540 ft 479 kts
2026-04-20 23:05 -23.42077 -65.00410 36162 ft 479 kts
2026-04-20 23:06 -23.38891 -64.99355 35756 ft 478 kts
2026-04-20 23:06 -23.35678 -64.98291 35425 ft 478 kts
2026-04-20 23:06 -23.32515 -64.97247 35196 ft 479 kts 10°
2026-04-20 23:06 -23.29317 -64.96194 35106 ft 481 kts 10°
2026-04-20 23:07 -23.22909 -64.94081 35117 ft 484 kts 11°
2026-04-20 23:07 -23.19657 -64.93007 35245 ft 485 kts 11°
2026-04-20 23:07 -23.16415 -64.91934 35315 ft 485 kts 11°
2026-04-20 23:08 -23.09977 -64.89805 35390 ft 485 kts 11°
2026-04-20 23:08 -23.03506 -64.87668 35457 ft 485 kts 11°
2026-04-20 23:09 -22.97070 -64.85547 35509 ft 484 kts 11°
2026-04-20 23:09 -22.90588 -64.83424 35611 ft 484 kts 11°
2026-04-20 23:10 -22.87373 -64.82372 35769 ft 484 kts 11°
2026-04-20 23:10 -22.84126 -64.81308 36068 ft 481 kts 11°
2026-04-20 23:10 -22.80913 -64.80253 36420 ft 479 kts 11°
2026-04-20 23:10 -22.77752 -64.79216 36701 ft 479 kts 11°
2026-04-20 23:11 -22.74514 -64.78155 36923 ft 481 kts 10°
2026-04-20 23:11 -22.71324 -64.77111 37062 ft 483 kts 10°
2026-04-20 23:11 -22.64901 -64.75007 37186 ft 481 kts 10°
2026-04-20 23:12 -22.58512 -64.72914 37190 ft 479 kts 10°
2026-04-20 23:12 -22.52111 -64.70822 37046 ft 478 kts 10°
2026-04-20 23:13 -22.45735 -64.68742 36958 ft 479 kts 10°
2026-04-20 23:13 -22.39355 -64.66659 36831 ft 479 kts 10°
2026-04-20 23:14 -22.32976 -64.64577 36691 ft 479 kts 11°
2026-04-20 23:14 -22.26600 -64.62497 36737 ft 479 kts 11°
2026-04-20 23:15 -22.23374 -64.61446 36865 ft 480 kts 11°
2026-04-20 23:15 -22.20188 -64.60415 37023 ft 480 kts 10°
2026-04-20 23:15 -22.16995 -64.59396 37183 ft 481 kts 10°
2026-04-20 23:15 -22.13790 -64.58377 37245 ft 481 kts 10°
2026-04-20 23:16 -22.07367 -64.56331 37242 ft 480 kts 10°
2026-04-20 23:16 -22.00930 -64.54278 37146 ft 480 kts 10°
2026-04-20 23:17 -21.94529 -64.52236 37048 ft 479 kts 10°
2026-04-20 23:17 -21.88123 -64.50197 36952 ft 479 kts 11°
2026-04-20 23:18 -21.81744 -64.48167 36933 ft 479 kts 11°
2026-04-20 23:18 -21.75320 -64.46122 36967 ft 479 kts 11°
2026-04-20 23:19 -21.68951 -64.44096 36997 ft 479 kts 11°
2026-04-20 23:19 -21.62520 -64.42052 37041 ft 479 kts 11°
2026-04-20 23:20 -21.56125 -64.40023 37078 ft 479 kts 11°
2026-04-20 23:20 -21.49723 -64.37991 37108 ft 479 kts 11°
2026-04-20 23:21 -21.43322 -64.35960 37115 ft 479 kts 11°
2026-04-20 23:21 -21.36930 -64.33939 37087 ft 479 kts 11°
2026-04-20 23:22 -21.30530 -64.31911 37055 ft 479 kts 11°
2026-04-20 23:22 -21.24154 -64.29878 37007 ft 478 kts 11°
2026-04-20 23:23 -21.17772 -64.27840 36962 ft 478 kts 11°
2026-04-20 23:23 -21.11372 -64.25797 36921 ft 478 kts 11°
2026-04-20 23:24 -21.05006 -64.23767 36885 ft 478 kts 11°
2026-04-20 23:24 -20.98618 -64.21730 36851 ft 478 kts 11°
2026-04-20 23:25 -20.92201 -64.19686 36805 ft 478 kts 11°
2026-04-20 23:25 -20.85799 -64.17647 36761 ft 478 kts 11°
2026-04-20 23:26 -20.79424 -64.15617 36726 ft 479 kts 11°
2026-04-20 23:26 -20.73029 -64.13583 36932 ft 479 kts 12°
2026-04-20 23:27 -20.69806 -64.12558 37149 ft 479 kts 12°
2026-04-20 23:27 -20.66646 -64.11556 37388 ft 478 kts 12°
2026-04-20 23:27 -20.63458 -64.10544 37577 ft 479 kts 12°
2026-04-20 23:27 -20.60220 -64.09514 37571 ft 479 kts 12°
2026-04-20 23:28 -20.53847 -64.07481 37320 ft 477 kts 12°
2026-04-20 23:28 -20.50661 -64.06464 37144 ft 476 kts 12°
2026-04-20 23:28 -20.47473 -64.05448 37069 ft 476 kts 12°
2026-04-20 23:29 -20.41129 -64.03426 37037 ft 477 kts 12°
2026-04-20 23:29 -20.34716 -64.01383 37030 ft 476 kts 12°
2026-04-20 23:30 -20.28387 -63.99367 37026 ft 474 kts 12°
2026-04-20 23:30 -20.22080 -63.97361 37053 ft 474 kts 12°
2026-04-20 23:31 -20.15733 -63.95341 37064 ft 474 kts 12°
2026-04-20 23:31 -20.09395 -63.93325 37068 ft 474 kts 12°
2026-04-20 23:32 -20.03099 -63.91324 37079 ft 474 kts 12°
2026-04-20 23:32 -19.96761 -63.89314 37093 ft 474 kts 12°
2026-04-20 23:33 -19.93595 -63.88308 36950 ft 474 kts 12°
2026-04-20 23:33 -19.92890 -63.88083 36905 ft 474 kts 12°
2026-04-20 23:33 -19.90243 -63.87241 36730 ft 471 kts 12°
2026-04-20 23:33 -19.87126 -63.86250 36500 ft 469 kts 12°
2026-04-20 23:34 -19.83980 -63.85249 36268 ft 466 kts 12°
2026-04-20 23:34 -19.80838 -63.84248 36033 ft 464 kts 12°
2026-04-20 23:34 -19.77730 -63.83258 35790 ft 463 kts 12°
2026-04-20 23:34 -19.74642 -63.82275 35496 ft 463 kts 12°
2026-04-20 23:35 -19.71546 -63.81290 35166 ft 464 kts 12°
2026-04-20 23:35 -19.65315 -63.79308 34258 ft 464 kts 13°
2026-04-20 23:35 -19.62205 -63.78317 33855 ft 460 kts 13°
2026-04-20 23:36 -19.59162 -63.77348 33453 ft 455 kts 13°
2026-04-20 23:36 -19.56130 -63.76384 33044 ft 452 kts 13°
2026-04-20 23:36 -19.53141 -63.75433 32638 ft 448 kts 13°
2026-04-20 23:36 -19.50144 -63.74480 32235 ft 445 kts 13°
2026-04-20 23:37 -19.47191 -63.73541 31852 ft 441 kts 13°
2026-04-20 23:37 -19.44274 -63.72614 31489 ft 437 kts 13°
2026-04-20 23:37 -19.41354 -63.71687 31133 ft 432 kts 13°
2026-04-20 23:37 -19.38505 -63.70782 30803 ft 428 kts 13°
2026-04-20 23:38 -19.35642 -63.69873 30491 ft 423 kts 13°
2026-04-20 23:38 -19.32847 -63.68987 30196 ft 420 kts 13°
2026-04-20 23:38 -19.30055 -63.68103 29907 ft 421 kts 13°
2026-04-20 23:38 -19.27235 -63.67211 29618 ft 420 kts 13°
2026-04-20 23:39 -19.24424 -63.66321 29325 ft 418 kts 13°
2026-04-20 23:39 -19.21639 -63.65439 29025 ft 416 kts 13°
2026-04-20 23:39 -19.18885 -63.64567 28718 ft 414 kts 13°
2026-04-20 23:39 -19.16106 -63.63687 28392 ft 412 kts 13°
2026-04-20 23:40 -19.13384 -63.62826 28068 ft 410 kts 13°
2026-04-20 23:40 -19.10636 -63.61956 27724 ft 407 kts 13°
2026-04-20 23:40 -19.07931 -63.61100 27373 ft 405 kts 13°
2026-04-20 23:40 -19.05229 -63.60246 27019 ft 402 kts 13°
2026-04-20 23:41 -19.02541 -63.59397 26681 ft 398 kts 13°
2026-04-20 23:41 -18.99917 -63.58567 26356 ft 395 kts 13°
2026-04-20 23:41 -18.97281 -63.57733 26035 ft 392 kts 14°
2026-04-20 23:41 -18.94690 -63.56914 25725 ft 388 kts 14°
2026-04-20 23:42 -18.92083 -63.56092 25414 ft 385 kts 14°
2026-04-20 23:42 -18.89516 -63.55280 25104 ft 381 kts 14°
2026-04-20 23:42 -18.86996 -63.54474 24817 ft 378 kts 14°
2026-04-20 23:42 -18.84481 -63.53666 24480 ft 375 kts 14°
2026-04-20 23:43 -18.81972 -63.52860 24183 ft 371 kts 14°
2026-04-20 23:43 -18.79516 -63.52071 23888 ft 368 kts 15°
2026-04-20 23:43 -18.77055 -63.51281 23595 ft 365 kts 15°
2026-04-20 23:43 -18.74642 -63.50505 23315 ft 362 kts 15°
2026-04-20 23:44 -18.72226 -63.49730 23026 ft 360 kts 15°
2026-04-20 23:44 -18.69844 -63.48966 22736 ft 358 kts 15°
2026-04-20 23:44 -18.67476 -63.48206 22442 ft 356 kts 15°
2026-04-20 23:44 -18.65106 -63.47448 22117 ft 355 kts 15°
2026-04-20 23:45 -18.62721 -63.46687 21522 ft 363 kts 15°
2026-04-20 23:45 -18.60302 -63.45914 20721 ft 366 kts 15°
2026-04-20 23:45 -18.57874 -63.45135 19952 ft 363 kts 15°
2026-04-20 23:45 -18.55475 -63.44365 19233 ft 357 kts 15°
2026-04-20 23:46 -18.53105 -63.43604 18504 ft 353 kts 15°
2026-04-20 23:46 -18.50777 -63.42857 17775 ft 348 kts 15°
2026-04-20 23:46 -18.48473 -63.42119 17041 ft 344 kts 15°
2026-04-20 23:46 -18.46199 -63.41391 16376 ft 337 kts 15°
2026-04-20 23:47 -18.43996 -63.40686 16126 ft 332 kts 15°
2026-04-20 23:47 -18.41762 -63.39973 15848 ft 332 kts 15°
2026-04-20 23:47 -18.39571 -63.39272 15566 ft 330 kts 15°
2026-04-20 23:47 -18.37368 -63.38568 15281 ft 329 kts 15°
2026-04-20 23:48 -18.35174 -63.37865 14983 ft 327 kts 15°
2026-04-20 23:48 -18.33009 -63.37174 14682 ft 325 kts 15°
2026-04-20 23:48 -18.30856 -63.36488 14380 ft 323 kts 15°
2026-04-20 23:48 -18.28685 -63.35795 14074 ft 321 kts 15°
2026-04-20 23:49 -18.26558 -63.35117 13769 ft 319 kts 15°
2026-04-20 23:49 -18.24414 -63.34433 13458 ft 318 kts 15°
2026-04-20 23:49 -18.22311 -63.33762 13153 ft 316 kts 15°
2026-04-20 23:49 -18.20214 -63.33094 12845 ft 314 kts 15°
2026-04-20 23:50 -18.18123 -63.32426 12537 ft 312 kts 15°
2026-04-20 23:50 -18.16036 -63.31761 12228 ft 311 kts 14°
2026-04-20 23:50 -18.13971 -63.31103 11922 ft 309 kts 14°
2026-04-20 23:50 -18.11900 -63.30444 11615 ft 307 kts 14°
2026-04-20 23:51 -18.09878 -63.29798 11316 ft 306 kts 14°
2026-04-20 23:51 -18.07841 -63.29149 11015 ft 304 kts 14°
2026-04-20 23:51 -18.05800 -63.28498 10713 ft 303 kts 14°
2026-04-20 23:51 -18.03776 -63.27853 10416 ft 301 kts 14°
2026-04-20 23:52 -18.01772 -63.27214 10127 ft 299 kts 14°
2026-04-20 23:52 -17.99778 -63.26581 9892 ft 295 kts 14°
2026-04-20 23:52 -17.97867 -63.25973 9873 ft 283 kts 14°
2026-04-20 23:52 -17.96010 -63.25382 9754 ft 275 kts 14°
2026-04-20 23:53 -17.94149 -63.24791 9472 ft 274 kts 13°
2026-04-20 23:53 -17.92308 -63.24205 9201 ft 273 kts 13°
2026-04-20 23:53 -17.90494 -63.23629 8940 ft 270 kts 13°
2026-04-20 23:53 -17.88774 -63.23083 8718 ft 267 kts 13°
2026-04-20 23:54 -17.86991 -63.22516 8539 ft 262 kts 13°
2026-04-20 23:54 -17.86087 -63.22228 8459 ft 259 kts 13°
2026-04-20 23:55 -17.84951 -63.21867 8370 ft 263 kts 13°
2026-04-20 23:55 -17.83147 -63.21298 8210 ft 269 kts 13°
2026-04-20 23:55 -17.81362 -63.20731 7998 ft 269 kts 13°
2026-04-20 23:56 -17.79545 -63.20154 7750 ft 268 kts 13°
2026-04-20 23:56 -17.77771 -63.19590 7495 ft 267 kts 13°
2026-04-20 23:56 -17.75991 -63.19024 7231 ft 266 kts 13°
2026-04-20 23:56 -17.74225 -63.18464 6951 ft 264 kts 13°
2026-04-20 23:57 -17.72483 -63.17910 6673 ft 254 kts 13°
2026-04-20 23:57 -17.70813 -63.17379 6430 ft 244 kts 13°
2026-04-20 23:57 -17.69210 -63.16870 6189 ft 236 kts 13°
2026-04-20 23:57 -17.67663 -63.16360 5950 ft 229 kts 19°
2026-04-20 23:58 -17.66329 -63.15417 5726 ft 234 kts 43°
2026-04-20 23:58 -17.65451 -63.13974 5321 ft 248 kts 67°
2026-04-20 23:58 -17.65219 -63.12166 5066 ft 253 kts 93°
2026-04-20 23:58 -17.65725 -63.10434 4982 ft 248 kts 118°
2026-04-20 23:59 -17.66703 -63.08993 4898 ft 241 kts 126°
2026-04-20 23:59 -17.67768 -63.07601 4626 ft 242 kts 127°
2026-04-20 23:59 -17.68830 -63.06208 4384 ft 241 kts 126°
2026-04-20 23:59 -17.69859 -63.04838 4159 ft 240 kts 126°
2026-04-21 00:00 -17.70881 -63.03458 3891 ft 235 kts 125°
2026-04-21 00:00 -17.71857 -63.02136 3833 ft 221 kts 124°
2026-04-21 00:00 -17.72772 -63.00893 3823 ft 210 kts 126°
2026-04-21 00:00 -17.73861 -62.99907 3806 ft 211 kts 152°
2026-04-21 00:01 -17.75263 -62.99503 3761 ft 206 kts 180°
2026-04-21 00:01 -17.76656 -62.99782 3750 ft 200 kts 207°
2026-04-21 00:01 -17.77771 -63.00596 3745 ft 194 kts 232°
2026-04-21 00:01 -17.78467 -63.01783 3731 ft 188 kts 256°
2026-04-21 00:02 -17.78603 -63.03094 3705 ft 178 kts 289°
2026-04-21 00:02 -17.77998 -63.04186 3704 ft 173 kts 316°
2026-04-21 00:02 -17.77092 -63.05010 3507 ft 172 kts 325°
2026-04-21 00:02 -17.76109 -63.05722 3347 ft 167 kts 328°
2026-04-21 00:03 -17.75129 -63.06382 3326 ft 169 kts 329°
2026-04-21 00:03 -17.74126 -63.07050 3114 ft 168 kts 329°
2026-04-21 00:03 -17.73140 -63.07708 2901 ft 163 kts 329°
2026-04-21 00:03 -17.72219 -63.08327 2695 ft 155 kts 329°
2026-04-21 00:04 -17.71333 -63.08924 2495 ft 147 kts 329°
2026-04-21 00:04 -17.70469 -63.09505 2315 ft 146 kts 329°
2026-04-21 00:04 -17.69619 -63.10076 2136 ft 146 kts 329°
2026-04-21 00:04 -17.68756 -63.10656 1945 ft 146 kts 329°
2026-04-21 00:05 -17.67905 -63.11229 1748 ft 145 kts 328°
2026-04-21 00:05 -17.67046 -63.11806 1563 ft 145 kts 329°
2026-04-21 00:05 -17.66193 -63.12374 1350 ft 144 kts 327°
2026-04-21 00:05 -17.65364 -63.12942 1259 ft 138 kts 328°
2026-04-21 00:06 -17.64789 -63.13327 1255 ft 55 kts 327°
2026-04-21 00:06 -17.64485 -63.13531 1253 ft 50 kts 328°
2026-04-21 00:06 -17.64208 -63.13715 1252 ft 43 kts 326°
2026-04-21 00:06 -17.64009 -63.13851 1251 ft 26 kts 327°
2026-04-21 00:07 -17.63913 -63.13926 1251 ft 12 kts 302°
2026-04-21 00:07 -17.63921 -63.14014 1251 ft 12 kts 243°
2026-04-21 00:07 -17.63957 -63.14068 1253 ft 7 kts 221°
2026-04-21 00:07 -17.64005 -63.14081 1253 ft 8 kts 167°
2026-04-21 00:08 -17.64057 -63.14054 1253 ft 8 kts 146°
2026-04-21 00:08 -17.64109 -63.14018 1254 ft 9 kts 146°
2026-04-21 00:08 -17.64166 -63.13978 1254 ft 10 kts 148°
2026-04-21 00:08 -17.64230 -63.13937 1254 ft 11 kts 148°
2026-04-21 00:09 -17.64299 -63.13892 1254 ft 12 kts 148°
2026-04-21 00:09 -17.64372 -63.13856 1255 ft 10 kts 184°
2026-04-21 00:09 -17.64427 -63.13907 1256 ft 10 kts 237°
2026-04-21 00:09 -17.64467 -63.13969 1258 ft 9 kts 236°
2026-04-21 00:10 -17.64513 -63.14015 1259 ft 8 kts 198°
2026-04-21 00:10 -17.64572 -63.13999 1260 ft 9 kts 147°
2026-04-21 00:10 -17.64623 -63.13965 1260 ft 3 kts 136°
2026-04-21 00:10 -17.64625 -63.13938 1260 ft 4 kts 75°
2026-04-21 00:11 -17.64614 -63.13913 1260 ft 1 kts 60°
2026-04-21 00:11 -17.64608 -63.13903 1260 ft 0 kts 58°